Location: Tel Aviv
(32.0670°N, 34.7670°E)
Time: 19:29:38
(UTC+03:00)

Transit 2A - Pass Details

Date: 01 June 2024
Orbit: 593 x 959 km, 66.7° (Epoch: 14 June)

Event Time Altitude Azimuth Distance (km) Brightness Sun altitude
Rises 20:18:55 0° 206° (SSW) 2,865 8.9 -7.5°
Reaches altitude 10° 20:21:05 10° 207° (SSW) 1,994 8.1 -7.9°
Maximum altitude 20:25:34 83° 295° (WNW) 673 5.8 -8.7°
Drops below altitude 10° 20:30:32 10° 24° (NNE) 2,198 8.5 -9.6°
Sets 20:33:01 0° 25° (NNE) 3,183 9.3 -10.0°
